Time,TemperatureF,DewpointF,PressureIn,WindDirection,WindDirectionDegrees,WindSpeedMPH,WindSpeedGustMPH,Humidity,HourlyPrecipIn,Conditions,Clouds,dailyrainin,SolarRadiationWatts/m^2,SoftwareType,DateUTC
2013-12-10 00:02:00,21.0,-10.0,-100.00,ENE,67,12.0,23.0,24,0.00,,,-99.99,0.000000,,2013-12-10 08:02:00,
2013-12-10 00:12:00,21.0,-10.0,-100.00,ENE,67,12.0,23.0,24,0.00,,,-99.99,0.000000,,2013-12-10 08:12:00,
2013-12-10 00:21:00,21.0,-10.0,-100.00,ENE,67,12.0,23.0,24,0.00,,,-99.99,0.000000,,2013-12-10 08:21:00,
2013-12-10 00:52:00,24.0,-9.0,-100.00,East,91,7.0,21.0,22,0.00,,,0.00,0.000000,,2013-12-10 08:52:00,
2013-12-10 01:02:00,24.0,-9.0,-100.00,East,91,7.0,21.0,22,0.00,,,0.00,0.000000,,2013-12-10 09:02:00,
2013-12-10 01:11:00,24.0,-9.0,-100.00,East,91,7.0,21.0,22,0.00,,,0.00,0.000000,,2013-12-10 09:11:00,
2013-12-10 01:21:00,24.0,-9.0,-100.00,East,91,7.0,21.0,22,0.00,,,0.00,0.000000,,2013-12-10 09:21:00,
2013-12-10 01:54:00,25.0,-9.0,-100.00,ENE,65,11.0,17.0,21,0.00,,,0.00,0.000000,,2013-12-10 09:54:00,
2013-12-10 02:03:00,25.0,-9.0,-100.00,ENE,65,11.0,17.0,21,0.00,,,0.00,0.000000,,2013-12-10 10:03:00,
2013-12-10 02:12:00,25.0,-9.0,-100.00,ENE,65,11.0,17.0,21,0.00,,,0.00,0.000000,,2013-12-10 10:12:00,
2013-12-10 02:22:00,25.0,-9.0,-100.00,ENE,65,11.0,17.0,21,0.00,,,0.00,0.000000,,2013-12-10 10:22:00,
2013-12-10 02:53:00,29.0,-9.0,-100.00,ENE,61,8.0,15.0,18,0.00,,,0.00,0.000000,,2013-12-10 10:53:00,
2013-12-10 03:02:00,29.0,-9.0,-100.00,ENE,61,8.0,15.0,18,0.00,,,0.00,0.000000,,2013-12-10 11:02:00,
2013-12-10 03:12:00,29.0,-9.0,-100.00,ENE,61,8.0,15.0,18,0.00,,,0.00,0.000000,,2013-12-10 11:12:00,
2013-12-10 03:22:00,29.0,-9.0,-100.00,ENE,61,8.0,15.0,18,0.00,,,0.00,0.000000,,2013-12-10 11:22:00,
2013-12-10 03:53:00,31.0,-9.0,-100.00,NNE,27,6.0,14.0,17,0.00,,,0.00,0.000000,,2013-12-10 11:53:00,
2013-12-10 04:02:00,31.0,-9.0,-100.00,NNE,27,6.0,14.0,17,0.00,,,0.00,0.000000,,2013-12-10 12:02:00,
2013-12-10 04:12:00,31.0,-9.0,-100.00,NNE,27,6.0,14.0,17,0.00,,,0.00,0.000000,,2013-12-10 12:12:00,
2013-12-10 04:22:00,31.0,-9.0,-100.00,NNE,27,6.0,14.0,17,0.00,,,0.00,0.000000,,2013-12-10 12:22:00,
2013-12-10 07:53:00,33.0,-7.0,-100.00,ENE,67,7.0,13.0,17,0.00,,,0.00,22.000000,,2013-12-10 15:53:00,
2013-12-10 08:04:00,33.0,-7.0,-100.00,ENE,67,7.0,13.0,17,0.00,,,0.00,22.000000,,2013-12-10 16:04:00,
2013-12-10 08:12:00,33.0,-7.0,-100.00,ENE,67,7.0,13.0,17,0.00,,,0.00,22.000000,,2013-12-10 16:12:00,
2013-12-10 08:23:00,33.0,-7.0,-100.00,ENE,67,7.0,13.0,17,0.00,,,0.00,22.000000,,2013-12-10 16:23:00,
2013-12-10 08:52:00,37.0,-5.0,-100.00,West,269,6.0,14.0,16,0.00,,,0.00,230.000000,,2013-12-10 16:52:00,
2013-12-10 09:02:00,37.0,-5.0,-100.00,West,269,6.0,14.0,16,0.00,,,0.00,230.000000,,2013-12-10 17:02:00,
2013-12-10 09:12:00,37.0,-5.0,-100.00,West,269,6.0,14.0,16,0.00,,,0.00,230.000000,,2013-12-10 17:12:00,
2013-12-10 09:22:00,37.0,-5.0,-100.00,West,269,6.0,14.0,16,0.00,,,0.00,230.000000,,2013-12-10 17:22:00,
2013-12-10 10:21:00,43.0,-1.0,-100.00,ENE,64,10.0,16.0,15,0.00,,,0.00,445.000000,,2013-12-10 18:21:00,
2013-12-10 10:52:00,44.0,-1.0,-100.00,ENE,65,10.0,19.0,15,0.00,,,0.00,612.000000,,2013-12-10 18:52:00,
2013-12-10 11:02:00,44.0,-1.0,-100.00,ENE,65,10.0,19.0,15,0.00,,,0.00,612.000000,,2013-12-10 19:02:00,
2013-12-10 11:11:00,44.0,-1.0,-100.00,ENE,65,10.0,19.0,15,0.00,,,0.00,612.000000,,2013-12-10 19:11:00,
2013-12-10 11:21:00,44.0,-1.0,-100.00,ENE,65,10.0,19.0,15,0.00,,,0.00,612.000000,,2013-12-10 19:21:00,
2013-12-10 11:52:00,43.0,2.0,-100.00,ENE,78,12.0,19.0,18,0.00,,,0.00,716.000000,,2013-12-10 19:52:00,
2013-12-10 12:02:00,43.0,2.0,-100.00,ENE,78,12.0,19.0,18,0.00,,,0.00,716.000000,,2013-12-10 20:02:00,
2013-12-10 12:11:00,43.0,2.0,-100.00,ENE,78,12.0,19.0,18,0.00,,,0.00,716.000000,,2013-12-10 20:11:00,
2013-12-10 12:21:00,43.0,2.0,-100.00,ENE,78,12.0,19.0,18,0.00,,,0.00,716.000000,,2013-12-10 20:21:00,
2013-12-10 12:52:00,41.0,2.0,-100.00,East,81,14.0,20.0,19,0.00,,,0.00,747.000000,,2013-12-10 20:52:00,
2013-12-10 13:01:00,41.0,2.0,-100.00,East,81,14.0,20.0,19,0.00,,,0.00,747.000000,,2013-12-10 21:01:00,
2013-12-10 13:12:00,41.0,2.0,-100.00,East,81,14.0,20.0,19,0.00,,,0.00,747.000000,,2013-12-10 21:12:00,
2013-12-10 13:21:00,41.0,2.0,-100.00,East,81,14.0,20.0,19,0.00,,,0.00,747.000000,,2013-12-10 21:21:00,
2013-12-10 13:54:00,38.0,-3.0,-100.00,East,82,16.0,21.0,17,0.00,,,0.00,698.000000,,2013-12-10 21:54:00,
2013-12-10 14:04:00,38.0,-3.0,-100.00,East,82,16.0,21.0,17,0.00,,,0.00,698.000000,,2013-12-10 22:04:00,
2013-12-10 14:13:00,38.0,-3.0,-100.00,East,82,16.0,21.0,17,0.00,,,0.00,698.000000,,2013-12-10 22:13:00,
2013-12-10 14:23:00,38.0,-3.0,-100.00,East,82,16.0,21.0,17,0.00,,,0.00,698.000000,,2013-12-10 22:23:00,
2013-12-10 14:53:00,39.0,-3.0,-100.00,ENE,75,13.0,20.0,16,0.00,,,0.00,573.000000,,2013-12-10 22:53:00,
2013-12-10 15:02:00,39.0,-3.0,-100.00,ENE,75,13.0,20.0,16,0.00,,,0.00,573.000000,,2013-12-10 23:02:00,
2013-12-10 15:12:00,39.0,-3.0,-100.00,ENE,75,13.0,20.0,16,0.00,,,0.00,573.000000,,2013-12-10 23:12:00,
2013-12-10 15:22:00,39.0,-3.0,-100.00,ENE,75,13.0,20.0,16,0.00,,,0.00,573.000000,,2013-12-10 23:22:00,
2013-12-10 15:53:00,46.0,2.0,-100.00,ENE,60,5.0,16.0,16,0.00,,,0.00,380.000000,,2013-12-10 23:53:00,
2013-12-10 16:02:00,46.0,2.0,-100.00,ENE,60,5.0,16.0,16,0.00,,,0.00,380.000000,,2013-12-11 00:02:00,
2013-12-10 16:11:00,46.0,2.0,-100.00,ENE,60,5.0,16.0,16,0.00,,,0.00,380.000000,,2013-12-11 00:11:00,
2013-12-10 16:22:00,46.0,2.0,-100.00,ENE,60,5.0,16.0,16,0.00,,,0.00,380.000000,,2013-12-11 00:22:00,
2013-12-10 16:52:00,38.0,-3.0,-100.00,ENE,71,9.0,12.0,17,0.00,,,0.00,153.000000,,2013-12-11 00:52:00,
2013-12-10 17:01:00,38.0,-3.0,-100.00,ENE,71,9.0,12.0,17,0.00,,,0.00,153.000000,,2013-12-11 01:01:00,
2013-12-10 17:11:00,38.0,-3.0,-100.00,ENE,71,9.0,12.0,17,0.00,,,0.00,153.000000,,2013-12-11 01:11:00,
2013-12-10 17:21:00,38.0,-3.0,-100.00,ENE,71,9.0,12.0,17,0.00,,,0.00,153.000000,,2013-12-11 01:21:00,
2013-12-10 17:52:00,34.0,-4.0,-100.00,ENE,74,12.0,14.0,19,0.00,,,0.00,4.000000,,2013-12-11 01:52:00,
2013-12-10 18:02:00,34.0,-4.0,-100.00,ENE,74,12.0,14.0,19,0.00,,,0.00,4.000000,,2013-12-11 02:02:00,
2013-12-10 18:11:00,34.0,-4.0,-100.00,ENE,74,12.0,14.0,19,0.00,,,0.00,4.000000,,2013-12-11 02:11:00,
2013-12-10 18:22:00,34.0,-4.0,-100.00,ENE,74,12.0,14.0,19,0.00,,,0.00,4.000000,,2013-12-11 02:22:00,
2013-12-10 18:52:00,35.0,-4.0,-100.00,ENE,69,13.0,16.0,18,0.00,,,0.00,0.000000,,2013-12-11 02:52:00,
2013-12-10 19:02:00,35.0,-4.0,-100.00,ENE,69,13.0,16.0,18,0.00,,,0.00,0.000000,,2013-12-11 03:02:00,
2013-12-10 19:11:00,35.0,-4.0,-100.00,ENE,69,13.0,16.0,18,0.00,,,0.00,0.000000,,2013-12-11 03:11:00,
2013-12-10 19:22:00,35.0,-4.0,-100.00,ENE,69,13.0,16.0,18,0.00,,,0.00,0.000000,,2013-12-11 03:22:00,
2013-12-10 19:54:00,33.0,-5.0,-100.00,ENE,64,7.0,15.0,19,0.00,,,0.00,0.000000,,2013-12-11 03:54:00,
2013-12-10 20:03:00,33.0,-5.0,-100.00,ENE,64,7.0,15.0,19,0.00,,,0.00,0.000000,,2013-12-11 04:03:00,
2013-12-10 20:13:00,33.0,-5.0,-100.00,ENE,64,7.0,15.0,19,0.00,,,0.00,0.000000,,2013-12-11 04:13:00,
2013-12-10 20:23:00,33.0,-5.0,-100.00,ENE,64,7.0,15.0,19,0.00,,,0.00,0.000000,,2013-12-11 04:23:00,
2013-12-10 20:53:00,33.0,-3.0,-100.00,ENE,64,8.0,11.0,21,0.00,,,0.00,0.000000,,2013-12-11 04:53:00,
2013-12-10 21:03:00,33.0,-3.0,-100.00,ENE,64,8.0,11.0,21,0.00,,,0.00,0.000000,,2013-12-11 05:03:00,
2013-12-10 21:12:00,33.0,-3.0,-100.00,ENE,64,8.0,11.0,21,0.00,,,0.00,0.000000,,2013-12-11 05:12:00,
2013-12-10 21:22:00,33.0,-3.0,-100.00,ENE,64,8.0,11.0,21,0.00,,,0.00,0.000000,,2013-12-11 05:22:00,
2013-12-10 21:53:00,33.0,-2.0,-100.00,ENE,75,10.0,14.0,22,0.00,,,0.00,0.000000,,2013-12-11 05:53:00,
2013-12-10 22:02:00,33.0,-2.0,-100.00,ENE,75,10.0,14.0,22,0.00,,,0.00,0.000000,,2013-12-11 06:02:00,
2013-12-10 22:12:00,33.0,-2.0,-100.00,ENE,75,10.0,14.0,22,0.00,,,0.00,0.000000,,2013-12-11 06:12:00,
2013-12-10 22:22:00,33.0,-2.0,-100.00,ENE,75,10.0,14.0,22,0.00,,,0.00,0.000000,,2013-12-11 06:22:00,
2013-12-10 22:52:00,32.0,-1.0,-100.00,ENE,71,8.0,15.0,24,0.00,,,0.00,0.000000,,2013-12-11 06:52:00,
2013-12-10 23:02:00,32.0,-1.0,-100.00,ENE,71,8.0,15.0,24,0.00,,,0.00,0.000000,,2013-12-11 07:02:00,
2013-12-10 23:11:00,32.0,-1.0,-100.00,ENE,71,8.0,15.0,24,0.00,,,0.00,0.000000,,2013-12-11 07:11:00,
2013-12-10 23:21:00,32.0,-1.0,-100.00,ENE,71,8.0,15.0,24,0.00,,,0.00,0.000000,,2013-12-11 07:21:00,
2013-12-10 23:52:00,34.0,0.0,-100.00,ENE,64,8.0,15.0,23,0.00,,,0.00,0.000000,,2013-12-11 07:52:00,